Simultaneous Nadir Overpasses (SNOs) Predictions

Prediction of SNOs between NOAA-19 and NPP Satellite Orbit:

Table of predicted SNOs for the next 14.0 days since TLE Epoch: 4/15/2014
Index Date (NOAA-19) Time (NOAA-19) Lat,Lon (NOAA-19) SZA (NOAA-19 ) Date (NPP) Time (NPP) Lat,Lon (NPP) SZA (NPP ) Distance(km) Time Diff (sec)
1 04/25/2014 17:21:49 -81.01, 45.42 108.57 04/25/2014 17:23:01 -81.01, 45.46 108.61 0.76 72
2 04/25/2014 18:12:50 81.00,-147.02 71.38 04/25/2014 18:13:46 81.00,-147.15 71.37 2.24 56
3 04/25/2014 19:03:51 -80.99, 20.54 108.68 04/25/2014 19:04:30 -80.99, 20.47 108.69 1.31 39
4 04/25/2014 19:54:52 80.99,-172.26 71.32 04/25/2014 19:55:14 80.99,-172.14 71.29 2.19 22
5 04/25/2014 20:45:53 -80.98, -4.71 108.74 04/25/2014 20:45:58 -80.98, -4.53 108.77 3.24 5
6 04/25/2014
